Location: *
(49.0044°N, 9.5056°E)
Time: 00:48:12
(UTC+00:00)

USA 234 - Pass Details

Date: 22 September 2019
Orbit: 1103 x 1105 km, 123.0° (Epoch: 17 October)

Event Time Altitude Azimuth Distance (km) Brightness Sun altitude
Exits shadow 22:37:17 35° 310° (NW) 1,721 4.5 -40.2°
Drops below altitude 10° 22:40:46 10° 304° (NW) 2,968 5.9 -40.3°
Sets 22:43:15 0° 303° (WNW) 3,928 6.6 -40.4°
